Dewpoint
5 9 11 11 12 13 14 14 14 15 15 11 11 11 12 12 12 15 16 16 16 16 15 15 16 16 12 13 12 13 14 16 14
-1 6 10 11 12 13 14 15 15 14 12 10 11 11 11 12 12 13 16 16 16 16 16 16 16 16 11 12 12 13 13 15 13
-1 5 9 10 11 12 13 14 15 15 10 7 8 11 11 11 12 12 12 13 14 14 16 15 16 16 14 14 12 11 13 15 14
-1 3 7 9 10 11 12 13 15 16 16 13 9 8 8 10 11 11 11 12 12 13 13 14 14 14 13 15 15 12 12 14 16
-1 1 2 4 7 9 11 12 13 14 15 16 13 9 7 7 8 9 10 11 11 12 12 13 13 14 14 13 16 14 12 13 15
-2 -1 2 4 5 6 9 11 12 13 15 14 15 15 12 9 7 8 9 9 9 11 11 12 12 13 14 14 13 14 11 12 12
-3 0 2 3 4 5 7 9 11 13 13 14 14 15 16 13 8 7 7 8 8 9 10 11 12 12 13 13 13 13 12 10 11
-3 -2 -0 2 6 7 9 9 11 13 13 13 14 14 16 15 9 9 8 8 8 9 10 10 11 12 12 13 14 15 11 8 10
-4 -5 -5 -5 2 6 8 10 11 12 11 12 13 14 14 15 13 11 9 10 9 9 10 10 10 11 12 12 13 15 13 8 9
-6 -4 -3 -2 -0 2 6 8 6 9 6 13 14 12 14 14 14 11 10 12 12 10 10 11 10 10 11 12 12 12 12 8 8
-5 -6 -4 -3 -3 -2 3 6 4 10 12 11 12 12 12 12 14 13 14 14 12 11 12 12 12 11 11 11 12 12 12 12 10
-5 -3 -3 -2 -2 -1 0 3 5 7 12 13 14 11 10 8 11 15 17 14 10 12 14 15 18 18 16 13 12 12 12 12 13
-5 -3 -3 -2 -2 -1 0 -3 1 8 11 12 12 8 7 10 9 11 12 11 14 15 17 18 18 18 17 17 14 15 14 12 13
5 4 2 2 3 -2 -2 -5 -0 1 9 9 7 15 15 12 9 8 9 10 11 12 14 17 17 17 15 15 17 14 15 13 12
8 6 9 10 7 0 2 1 -7 -7 -5 1 12 13 13 13 13 13 17 13 13 14 14 14 14 15 15 9 11 12 11 12 12
7 9 11 13 6 8 11 2 -1 -1 -2 2 11 13 12 13 12 12 13 15 17 18 18 17 17 17 18 17 12 9 10 12 13
13 14 16 15 13 13 15 8 10 9 6 7 7 9 9 11 17 17 18 18 19 18 18 18 17 17 17 16 16 13 12 14 15
15 15 15 15 15 16 16 15 15 14 14 16 15 16 17 18 18 18 19 18 18 18 18 18 18 18 17 18 18 16 13 14 12
14 15 15 15 15 15 15 14 10 8 8 9 13 16 16 15 15 16 17 17 18 18 18 18 17 17 17 16 16 17 17 17 16
14 15 15 15 16 16 16 15 11 6 5 5 6 9 10 14 14 14 14 15 16 17 18 16 16 16 15 15 14 16 16 17 18
Wind_Speed
25 27 33 35 38 39 39 40 42 40 39 43 43 43 43 41 39 35 31 28 24 21 20 19 20 23 25 23 20 18 16 15 13
22 26 32 36 38 40 39 40 44 46 48 47 46 45 45 44 42 41 34 32 31 27 23 20 20 21 24 24 23 21 19 16 17
24 27 30 31 34 38 40 40 41 44 49 49 49 48 48 47 46 44 43 42 39 34 29 28 22 23 23 25 25 24 23 20 21
27 26 29 31 32 34 37 36 37 40 42 48 48 49 49 49 48 47 45 46 45 42 39 36 31 30 26 27 27 28 27 24 22
23 24 24 24 26 27 30 35 38 41 42 42 48 48 47 49 49 47 45 47 46 44 42 41 38 35 32 31 29 30 32 30 26
11 14 17 20 22 27 29 32 35 37 39 43 42 45 46 47 48 48 49 48 45 44 42 41 40 40 39 35 35 34 35 34 33
5 7 10 17 20 26 25 29 35 41 37 38 39 40 43 48 52 51 49 48 46 46 46 45 43 42 41 39 36 37 37 38 38
7 5 4 9 14 19 21 25 31 36 36 38 39 43 41 49 53 54 53 53 51 48 48 46 45 44 43 42 41 37 42 42 42
23 25 22 18 16 17 19 23 26 29 36 39 40 42 49 47 46 48 51 53 53 52 50 49 47 49 48 47 45 43 42 43 44
22 21 20 17 16 18 18 22 22 25 28 30 37 43 44 45 45 44 44 47 48 50 52 51 51 50 52 53 51 49 46 45 45
24 28 25 24 22 19 19 20 20 22 24 30 38 41 41 44 46 45 42 42 44 45 47 50 51 52 53 55 54 52 49 47 44
28 28 28 27 25 22 20 22 21 19 23 27 32 39 39 41 43 40 36 42 43 43 40 41 40 39 44 53 56 54 51 49 47
27 26 26 26 23 22 22 25 21 20 23 25 31 35 35 34 37 39 39 40 39 37 34 34 33 37 40 43 50 51 53 51 49
19 18 21 20 21 24 23 21 18 18 20 25 27 24 27 31 34 36 37 38 37 37 37 33 37 38 40 42 44 51 53 54 54
29 23 20 19 20 21 21 23 24 22 22 20 23 23 24 28 31 30 28 36 38 38 36 37 41 43 43 40 49 52 56 60 57
23 23 19 16 14 15 15 18 20 20 19 20 22 23 25 25 26 27 30 33 33 31 34 36 39 38 42 38 44 51 62 59 57
14 13 10 7 9 12 11 12 12 14 14 14 15 15 17 18 21 22 23 25 27 29 31 36 41 44 47 43 45 52 53 57 52
7 6 3 3 6 9 10 12 13 14 14 12 12 12 12 14 15 19 20 24 25 28 33 35 37 40 39 38 38 48 53 51 46
6 7 6 6 6 6 9 8 10 11 12 12 10 6 6 9 12 14 16 20 23 34 34 35 41 41 38 37 38 38 44 46 36
7 9 10 9 7 6 7 6 4 5 5 5 5 6 8 6 8 11 15 18 23 26 30 36 42 42 42 49 48 49 50 40 33
Wind_Direction
203 206 207 206 205 205 205 204 207 206 211 217 217 219 222 224 226 226 226 230 220 222 219 223 221 230 224 225 229 237 247 250 243
216 204 204 206 206 207 207 207 208 209 215 219 220 223 225 227 229 228 225 224 233 225 223 222 221 222 221 221 228 233 238 236 242
209 202 202 205 207 209 211 211 209 210 219 222 221 222 226 228 231 231 232 236 233 232 225 226 220 225 222 221 225 228 234 235 238
207 202 202 204 209 211 214 213 212 212 214 220 224 224 226 228 228 231 233 235 237 237 237 236 229 234 227 222 223 227 233 232 229
211 208 212 213 214 211 211 212 213 214 213 213 220 226 226 228 229 229 231 234 236 237 236 236 235 233 233 228 223 227 233 236 231
234 233 228 219 212 210 213 214 213 214 214 215 215 218 223 226 228 229 230 233 235 237 233 231 232 232 232 232 228 229 234 236 237
215 205 220 223 225 219 216 214 214 212 213 216 215 216 214 222 229 230 231 231 232 234 235 231 230 231 232 234 233 231 233 235 236
274 268 288 253 228 214 216 216 217 218 217 215 212 216 216 220 227 231 233 234 234 234 235 235 233 232 231 233 233 231 234 236 236
287 282 280 273 249 227 227 224 221 220 223 218 213 214 220 220 225 229 232 235 237 237 236 236 234 234 232 231 232 230 232 235 235
278 274 272 262 238 240 238 225 228 225 232 219 217 219 221 223 227 233 233 233 235 238 238 237 235 233 234 232 232 233 235 235 234
268 261 264 258 256 251 246 241 240 239 223 226 219 224 223 228 227 232 231 230 235 236 237 236 235 235 233 234 234 235 235 237 237
253 254 255 260 261 260 258 249 249 234 223 218 217 225 229 234 234 228 222 235 239 236 233 234 231 233 235 238 239 237 235 235 236
255 259 260 261 261 259 252 256 248 225 214 213 224 226 227 230 235 236 236 241 237 234 228 228 225 228 233 236 240 241 244 240 237
288 279 270 263 257 252 247 241 224 225 215 222 230 222 221 228 232 235 238 241 242 241 239 225 229 226 232 236 236 237 241 240 238
273 275 276 275 264 247 233 229 230 230 233 232 223 219 221 229 235 232 225 235 238 235 234 238 236 238 230 235 241 239 237 240 235
263 260 267 265 245 222 217 222 222 221 224 217 215 215 222 224 231 233 227 233 228 221 226 223 227 225 229 227 238 242 241 239 242
258 250 253 244 215 200 195 197 193 196 200 200 203 211 217 221 223 222 219 218 220 221 222 225 225 224 228 231 232 236 239 239 235
219 207 170 136 150 145 130 149 158 165 173 180 194 199 206 213 217 223 220 220 223 225 227 229 230 231 236 233 231 234 234 236 236
178 146 116 105 98 100 103 115 136 149 165 170 167 173 204 215 219 228 232 231 237 232 232 234 238 233 234 238 242 241 244 245 243
136 120 106 86 70 69 75 77 119 140 150 167 187 197 225 235 249 246 243 248 248 249 251 249 248 251 251 241 234 244 252 250 237
Height
1441 1451 1457 1463 1470 1476 1482 1488 1494 1501 1506 1511 1517 1522 1526 1532 1537 1541 1545 1549 1553 1555 1559 1561 1564 1563 1566 1569 1572 1574 1576 1577 1578
1432 1440 1448 1454 1460 1466 1473 1479 1484 1490 1496 1502 1509 1514 1519 1523 1529 1534 1538 1542 1545 1550 1553 1557 1558 1559 1561 1564 1567 1569 1572 1574 1574
1424 1433 1440 1447 1453 1458 1463 1468 1475 1481 1485 1491 1497 1505 1510 1515 1519 1524 1529 1533 1537 1541 1545 1549 1553 1554 1557 1559 1562 1565 1567 1569 1570
1418 1425 1432 1437 1443 1449 1455 1464 1470 1472 1478 1482 1488 1494 1499 1504 1509 1514 1520 1523 1528 1532 1538 1542 1545 1547 1551 1554 1556 1559 1562 1565 1566
1415 1421 1426 1432 1437 1443 1449 1453 1459 1462 1467 1472 1474 1481 1487 1492 1499 1505 1509 1513 1519 1524 1529 1534 1537 1541 1544 1547 1550 1552 1555 1558 1560
1414 1418 1423 1427 1431 1435 1439 1445 1450 1454 1458 1460 1466 1472 1477 1483 1488 1494 1498 1503 1510 1515 1520 1524 1529 1532 1535 1538 1541 1545 1548 1551 1554
1414 1418 1421 1423 1426 1428 1432 1436 1440 1443 1449 1454 1459 1463 1467 1470 1475 1481 1487 1493 1499 1504 1509 1514 1519 1523 1527 1530 1534 1537 1540 1543 1546
1412 1414 1417 1418 1419 1422 1425 1428 1431 1434 1439 1444 1449 1453 1458 1459 1464 1471 1478 1482 1488 1494 1499 1504 1510 1514 1518 1522 1526 1528 1530 1533 1537
1409 1409 1412 1414 1415 1417 1418 1420 1422 1426 1428 1432 1439 1444 1445 1450 1455 1461 1465 1471 1477 1483 1488 1493 1499 1502 1506 1510 1513 1516 1520 1524 1528
1406 1406 1406 1409 1411 1412 1413 1414 1415 1417 1419 1427 1430 1433 1439 1444 1448 1450 1455 1462 1468 1472 1476 1482 1485 1489 1494 1497 1500 1504 1507 1511 1516
1400 1399 1400 1401 1403 1405 1407 1409 1412 1411 1415 1416 1420 1424 1429 1434 1438 1442 1448 1453 1455 1460 1465 1469 1474 1478 1482 1487 1490 1495 1499 1505 1510
1393 1392 1392 1394 1396 1399 1401 1402 1403 1406 1407 1409 1412 1414 1417 1422 1428 1435 1441 1443 1444 1450 1457 1461 1466 1473 1477 1479 1482 1485 1489 1495 1499
1385 1386 1388 1388 1388 1390 1391 1391 1394 1396 1399 1402 1401 1403 1407 1416 1421 1425 1429 1434 1440 1444 1449 1452 1458 1460 1463 1467 1471 1478 1484 1488 1491
1381 1380 1381 1382 1381 1380 1381 1384 1387 1389 1391 1392 1395 1402 1405 1408 1411 1415 1420 1426 1430 1433 1437 1443 1444 1448 1450 1454 1457 1461 1465 1471 1475
1377 1377 1376 1375 1373 1373 1375 1378 1380 1382 1384 1388 1391 1395 1398 1402 1405 1409 1412 1415 1420 1423 1427 1429 1432 1435 1436 1430 1441 1444 1446 1453 1456
1373 1373 1373 1371 1370 1369 1370 1372 1374 1376 1379 1382 1385 1388 1391 1395 1399 1401 1405 1406 1410 1415 1417 1420 1420 1423 1424 1422 1422 1426 1429 1434 1444
1370 1371 1371 1369 1369 1369 1369 1369 1371 1373 1375 1378 1380 1384 1387 1390 1394 1396 1398 1401 1403 1406 1409 1408 1409 1410 1410 1408 1412 1411 1413 1421 1427
1371 1371 1370 1371 1372 1371 1368 1367 1369 1369 1371 1375 1378 1381 1384 1387 1389 1390 1392 1393 1396 1397 1399 1401 1401 1402 1406 1406 1402 1400 1402 1406 1411
1371 1370 1369 1371 1372 1371 1368 1369 1368 1368 1371 1373 1376 1380 1383 1385 1387 1388 1388 1389 1389 1390 1391 1392 1393 1394 1395 1397 1397 1397 1397 1400 1402
1370 1370 1369 1371 1373 1374 1372 1371 1369 1369 1370 1372 1374 1376 1377 1380 1380 1383 1385 1385 1384 1384 1382 1384 1385 1384 1385 1386 1384 1385 1388 1393 1398